weather.gov     
National Weather Service

Terminal Aerodrome Forecast
NWS Homepage
This page is being discontinued on March 12, 2014.
The same data is available at this site. Please update your bookmarks.
Thank you, and we apologize for the inconvenience.
Please send an email to SR-SRH.Webmaster@noaa.gov with any concerns.


Current Version
Previous Version:    01  02  03  04  05  06  07  08  09  10  11  12  13  14  15  16  17  18  19  20  21  22  23  24  25  26  27  
[Printable]
783
FTUS42 TJSJ 252300 RRA
TAFJBQ
TAF
TJBQ 252339Z 2600/2624 10012KT P6SM -RA SCT025 SCT040 BKN090
     FM260200 09008KT P6SM FEW025 SCT050 SCT090
     FM260800 10005KT P6SM VCSH FEW022 SCT050
     FM261430 08017G27KT P6SM SCT025 SCT060
      AMD NOT SKED 2602/2611=


U.S. Dept. of Commerce
NOAA National Weather Service
1325 East West Highway
Silver Spring, MD 20910
E-mail: w-nws.webmaster@noaa.gov
Page last modified: May 16, 2007
NATIONAL WEATHER SERVICE: for Safety, for Work, for Fun - FOR LIFE